This demonstration page uses our WeatherBlox Daily Observations layout. Learn more.

Left ArrowRight Arrow

39.51506, -84.39828

Hourly Observations for March 25, 2017

Temp ( °F °C ) Dew Point ( °F °C ) Humidity (%) Winds ( mph kmh ) Pressure ( in mb ) Visibility ( mi km ) Precip ( " mm )
12:15 am 00:15 Cloudy 65 18.4 49 9.6 57 57 S 6 9 30.12 1020 10 16 0.00 0.00
12:35 am 00:35 Cloudy 63 17.4 49 9.4 60 60 SSW 3 6 30.12 1020 N/A 0.00 0.00
12:55 am 00:55 Cloudy 64 18 49 9.7 59 59 SSW 6 9 30.12 1020 10 16 0.00 0.00
1:15 am 01:15 Mostly Cloudy 62 16.6 49 9.2 62 62 S 6 9 30.09 1019 10 16 0.00 0.00
1:35 am 01:35 Clear 62 16.6 49 9.2 62 62 S 7 11 30.09 1019 10 16 0.00 0.00
1:55 am 01:55 Clear 61 16.3 49 9.3 63 63 SSW 7 11 30.12 1020 N/A 0.00 0.00
2:15 am 02:15 Clear 62 16.5 49 9.6 64 64 S 6 9 30.09 1019 10 16 0.00 0.00
2:35 am 02:35 Clear 61 16 48 9.1 64 64 SSW 5 7 30.12 1020 N/A 0.00 0.00
2:55 am 02:55 Clear 62 16.6 49 9.5 63 63 S 7 11 30.09 1019 N/A 0.00 0.00
3:15 am 03:15 Clear 63 17.2 49 9.3 60 60 S 8 13 30.09 1019 N/A 0.00 0.00
3:35 am 03:35 Clear 61 16 49 9.2 64 64 SSW 5 7 30.12 1020 10 16 0.00 0.00
3:55 am 03:55 Clear 60 15.7 49 9.3 66 66 SSW 8 13 30.12 1020 10 16 0.00 0.00
4:15 am 04:15 Clear 61 16.3 49 9.2 63 63 SSW 7 11 30.12 1020 10 16 0.00 0.00
4:35 am 04:35 Clear 61 16 49 9.2 64 64 SSW 6 9 30.12 1020 10 16 0.00 0.00
4:55 am 04:55 Clear 62 16.6 48 9 61 61 S 5 7 30.09 1019 10 16 0.00 0.00
5:15 am 05:15 Clear 61 16.2 48 8.8 62 62 S 5 7 30.12 1020 10 16 0.00 0.00
5:35 am 05:35 Clear 61 16 47 8.5 61 61 S 5 7 30.12 1020 10 16 0.00 0.00
5:55 am 05:55 Clear 61 16.1 47 8.2 60 60 S 3 6 30.12 1020 10 16 0.00 0.00
6:15 am 06:15 Clear 60 15.3 47 8.5 64 64 Calm 30.12 1020 10 16 0.00 0.00
6:35 am 06:35 Clear 60 15.3 48 8.8 65 65 Calm 30.12 1020 10 16 0.00 0.00
6:55 am 06:55 Clear 59 15.2 48 8.7 65 65 SSW 3 6 30.12 1020 10 16 0.00 0.00
7:15 am 07:15 Clear 59 15.1 47 8.5 65 65 S 5 7 30.12 1020 10 16 0.00 0.00
7:35 am 07:35 Sunny 59 14.9 47 8.4 65 65 SSW 6 9 30.12 1020 10 16 0.00 0.00
7:55 am 07:55 Sunny 60 15.3 47 8.5 64 64 S 5 7 30.12 1020 10 16 0.00 0.00
8:15 am 08:15 Partly Cloudy 60 15.8 46 7.9 60 60 S 5 7 30.15 1021 10 16 0.00 0.00
8:35 am 08:35 Sunny 62 16.5 46 8 57 57 S 6 9 30.15 1021 10 16 0.00 0.00
8:55 am 08:55 Mostly Cloudy 63 17.1 46 7.6 54 54 S 8 13 30.12 1020 10 16 0.00 0.00
9:15 am 09:15 Cloudy 64 18 46 7.5 50 50 S 12 19 30.12 1020 10 16 0.00 0.00
9:35 am 09:35 Partly Cloudy 64 18 45 7.3 50 50 S 12 19 30.12 1020 10 16 0.00 0.00
9:55 am 09:55 Sunny 69 20.8 47 8.5 45 45 S 15 24 30.12 1020 10 16 0.00 0.00
10:15 am 10:15 Mostly Cloudy 69 20.7 48 8.7 46 46 S 10 17 30.12 1020 10 16 0.00 0.00
10:35 am 10:35 Mostly Cloudy 69 20.8 47 8.5 45 45 S 10 17 30.12 1020 10 16 0.00 0.00
10:55 am 10:55 Partly Cloudy 69 20.8 47 8.4 45 45 S 10 17 30.12 1020 10 16 0.00 0.00
11:15 am 11:15 Partly Cloudy 69 20.8 46 7.7 43 43 S 14 22 30.12 1020 10 16 0.00 0.00
11:35 am 11:35 Sunny 69 20.8 46 7.7 43 43 S 13 20 30.12 1020 N/A 0.00 0.00
11:55 am 11:55 Sunny 69 20.8 46 8 44 44 S 12 19 30.12 1020 10 16 0.00 0.00
12:15 pm 12:15 Sunny 69 20.8 46 7.7 43 43 SSW 10 17 30.09 1019 N/A 0.00 0.00
12:35 pm 12:35 Sunny 69 20.8 45 7.1 41 41 S 12 19 30.09 1019 10 16 0.00 0.00
12:50 pm 12:50 Sunny 71 21.8 46 7.8 41 41 S 12 19 30.09 1019 10 16 0.00 0.00
1:15 pm 13:15 Sunny 74 23.6 46 7.9 37 37 S 12 19 30.09 1019 10 16 0.00 0.00
1:35 pm 13:35 Sunny 74 23.6 46 7.9 37 37 S 12 19 30.06 1018 10 16 0.00 0.00
1:55 pm 13:55 Sunny 74 23.6 44 6.9 34 34 S 13 20 30.06 1018 10 16 0.00 0.00
2:15 pm 14:15 Sunny 74 23.6 44 6.6 34 34 S 12 19 30.06 1018 10 16 0.00 0.00
2:35 pm 14:35 Sunny 77 25.1 45 7.3 32 32 S 10 17 30.06 1018 10 16 0.00 0.00
2:55 pm 14:55 Sunny 77 25.1 45 7 31 31 S 13 20 30.03 1017 10 16 0.00 0.00
3:15 pm 15:15 Sunny 77 25.1 44 6.9 31 31 S 13 20 30.03 1017 10 16 0.00 0.00
3:35 pm 15:35 Sunny 77 25.1 44 6.5 30 30 SE 14 22 30.03 1017 10 16 0.00 0.00
3:50 pm 15:50 Sunny 77 25.1 43 6.2 30 30 S 7 11 30.03 1017 10 16 0.00 0.00
4:15 pm 16:15 Sunny 77 25.1 44 6.7 31 31 SSE 12 19 30.00 1016 10 16 0.00 0.00
4:35 pm 16:35 Sunny 77 25.1 44 6.8 31 31 SSE 12 19 30.00 1016 10 16 0.00 0.00
4:55 pm 16:55 Sunny 77 25 44 6.5 31 31 SSE 10 17 30.00 1016 10 16 0.00 0.00
5:15 pm 17:15 Sunny 74 23.6 43 5.9 32 32 SSE 14 22 30.00 1016 10 16 0.00 0.00
5:35 pm 17:35 Sunny 74 23.6 43 6.1 32 32 SSE 9 15 30.00 1016 10 16 0.00 0.00
5:55 pm 17:55 Sunny 74 23.6 43 6 32 32 SE 13 20 30.00 1016 10 16 0.00 0.00
6:15 pm 18:15 Sunny 74 23.6 43 6.3 33 33 SSE 7 11 30.00 1016 10 16 0.00 0.00
6:35 pm 18:35 Sunny 74 23.6 44 6.9 34 34 SE 7 11 30.00 1016 10 16 0.00 0.00
6:55 pm 18:55 Sunny 74 23.6 44 6.9 34 34 SE 7 11 30.00 1016 10 16 0.00 0.00
7:15 pm 19:15 Partly Cloudy 74 23.6 45 7.4 35 35 ESE 6 9 30.00 1016 10 16 0.00 0.00
7:35 pm 19:35 Partly Cloudy 74 23.6 46 7.6 36 36 ESE 7 11 30.00 1016 10 16 0.00 0.00
7:55 pm 19:55 Clear 73 22.8 47 8.1 39 39 ESE 7 11 30.00 1016 10 16 0.00 0.00
8:15 pm 20:15 Clear 71 21.9 46 7.5 40 40 ESE 7 11 30.00 1016 10 16 0.00 0.00
8:35 pm 20:35 Clear 71 21.9 45 7.4 39 39 ESE 6 9 30.00 1016 10 16 0.00 0.00
8:55 pm 20:55 Clear 69 20.8 44 6.7 40 40 SE 6 9 30.00 1016 10 16 0.00 0.00
9:15 pm 21:15 Clear 69 20.8 45 7.1 41 41 ESE 7 11 30.00 1016 10 16 0.00 0.00
9:35 pm 21:35 Clear 69 20.8 45 7.1 41 41 ESE 6 9 30.00 1016 10 16 0.00 0.00
9:55 pm 21:55 Clear 69 20.8 45 7.4 42 42 ESE 5 7 30.00 1016 10 16 0.00 0.00
10:15 pm 22:15 Clear 69 20.8 46 7.7 43 43 ESE 3 6 30.00 1016 10 16 0.00 0.00
10:35 pm 22:35 Partly Cloudy 69 20.8 46 8 44 44 ESE 6 9 30.00 1016 10 16 0.00 0.00
10:55 pm 22:55 Partly Cloudy 69 20.8 46 7.9 44 44 ESE 6 9 30.00 1016 10 16 0.00 0.00
11:15 pm 23:15 Clear 69 20.8 46 7.7 43 43 ESE 6 9 30.00 1016 10 16 0.00 0.00
11:35 pm 23:35 Clear 69 20.8 46 7.9 44 44 ESE 6 9 30.00 1016 10 16 0.00 0.00
11:55 pm 23:55 Partly Cloudy 69 20.8 47 8.2 44 44 ESE 5 7 30.00 1016 10 16 0.00 0.00

Powered by AerisWeather